Location: Unnamed
(47.6264°N, 122.3366°W)
Time: 07:49:02
(UTC-07:00)

X-37B - Pass Details

Date: 24 June 2021
Orbit: 383 x 392 km, 45.0° (Epoch: 01 July)

Event Time Altitude Azimuth Distance (km) Brightness Sun altitude
Rises 00:21:02 0° 261° (W) 2,255 4.5 -18.1°
Reaches altitude 10° 00:23:08 10° 256° (WSW) 1,402 3.4 -18.1°
Enters shadow 00:24:07 18° 251° (WSW) 1,014 2.6 -18.2°
